{"data":{"norad_id":61953,"intl_designator":"2024-209Q","name":"STARLINK-32585","alt_names":[],"object_type":"PAYLOAD","status":"ACTIVE","operator":null,"country":"US","launch_date":"2024-11-14","launch_site_code":"AFWTR","launch_vehicle":null,"mission":null,"orbit_class":"UNKNOWN","rcs_meters":null,"size_class":null,"mass_kg":null,"dimensions":null,"purposes":["comms"],"wikipedia_slug":null,"has_3d_model":false,"image_url":null,"decayed_at":null,"tle_current":{"epoch":"2026-09-21T09:19:10.823808Z","epoch_age_seconds":108896,"freshness":"FRESH","line1":"1 61953U 24209Q   26264.38831972  .00023209  00000+0  69609-3 0  9990","line2":"2 61953  53.1587 303.8453 0001159  92.6346 267.4789 15.34392159104995","mean_motion":15.34392159,"eccentricity":0.0001159,"inclination_deg":53.1587,"raan_deg":303.8453,"arg_perigee_deg":92.6346,"mean_anomaly_deg":267.4789,"bstar":0.00069609,"rev_number":10499,"period_min":93.84823765904,"perigee_km":461.93368932585,"apogee_km":463.51940149568,"semimajor_km":6840.8635454108,"source":"CELESTRAK","updated_at":"2026-09-22T09:00:49.456426Z"}}}